Location: Newark
(39.0083°N, 20.7336°E)
Time: 09:04:27
(UTC+00:00)

Nauka - Pass Details

Date: 02 October 2021
Orbit: 417 x 423 km, 51.6° (Epoch: 26 October)

Event Time Altitude Azimuth Distance (km) Brightness Sun altitude
Rises 17:32:25 0° 315° (NW) 2,365 ? -15.3°
Reaches altitude 10° 17:34:43 10° 327° (NNW) 1,500 ? -15.7°
Maximum altitude 17:37:41 28° 29° (NNE) 816 ? -16.3°
Enters shadow 17:38:10 27° 45° (NE) 840 ? -16.4°
